User: anonymous   Login
Location: Knowlton
(51.2333°N, 1.2667°E)
Time: 13:09:49
(UTC+00:00)
Language:

Cosmos 1842 Rocket - Orbit

View from above orbital plane
View from above orbital plane
View from above satellite
View from above satellite

Ground track
Ground track

The orbit data is extracted from the following two-line orbital elements,

1 17912U 87038B   21173.87227077  .00000059  00000-0  42170-5 0  9993
2 17912  82.5022 114.0840 0021806  81.0118 279.3564 14.83083558824022
Epoch (UTC): 22 June 2021 20:56:04
Eccentricity: 0.0021806
inclination: 82.5022°
perigee height: 604 km
apogee height: 635 km
right ascension of ascending node: 114.0840°
argument of perigee: 81.0118°
revolutions per day: 14.83083558
mean anomaly at epoch: 279.3564°
orbit number at epoch: 82402

The dashed part of the orbit path shows where the satellite is in the earth's shadow,  

DLR